SCP
0 0 0 0 0 0 0 0 0 0 0 0 0 0 0 0 0 0 0 0 0 0 0 0 0 0 0 0 0 0 0 0 0 0 0 0 0 0 0 0 0 0 0 0 0 0 0 0 0
0 0 0 0 0 0 0 0 0 0 0 0 0 0 0 0 0 0 0 0 0 0 0 0 0 0 0 0 0 0 0 0 0 0 0 0 0 0 0 0 0 0 0 0 0 0 0 0 0
0 0 0 0 0 0 0 0 0 0 0 0 0 0 0 0 0 0 0 0 0 0 0 0 0 0 0 0 0 0 0 0 0 0 0 0 0 0 0 0 0 0 0 0 0 0 0 0 0
0 0 0 0 0 0 0 0 0 0 0 0 0 0 0 0 0 0 0 0 0 0 0 0 0 0 0 0 0 0 0 0 0 0 0 0 0 0 0 0 0 0 0 0 0 0 0 0 0
0 0 0 0 0 0 0 0 0 0 0 0 0 0 0 0 0 0 0 0 0 0 0 0 0 0 0 0 0 0 0 0 0 0 0 0 0 0 0 0 0 0 0 0 0 0 0 0 0
0 0 0 0 0 0 0 0 0 0 0 0 0 0 0 0 0 0 0 0 0 0 0 0 0 0 0 0 0 0 0 0 0 0 0 0 0 0 0 0 0 0 0 0 0 0 0 0 0
0 0 0 0 0 0 0 0 0 0 0 0 0 0 0 0 0 0 0 0 0 0 0 0 0 0 0 0 0 0 0 0 0 0 0 0 0 0 0 0 0 0 0 0 0 0 0 0 0
0 0 0 0 0 0 0 0 0 0 0 0 0 0 0 0 0 0 0 0 0 0 0 0 0 0 0 0 0 0 0 0 0 0 0 0 0 0 0 0 0 0 0 0 0 0 0 0 0
0 0 0 0 0 0 0 0 0 0 0 0 0 0 0 0 0 0 0 0 0 0 0 0 0 0 0 0 0 0 0 0 0 0 0 0 0 0 0 0 0 0 -0 -0 0 0 0 0 0
0 0 0 0 0 0 0 0 0 0 0 0 0 0 0 0 0 0 0 0 0 0 0 0 0 0 0 0 0 0 0 0 0 0 0 0 0 0 0 0 -0 -0 -0 -0 0 0 0 0 0
0 0 0 0 0 0 0 0 0 0 0 0 0 0 0 0 0 0 0 0 0 0 0 0 0 0 0 0 0 0 0 0 0 0 0 0 0 0 -0 -0 -0 -0 -0 -0 0 0 0 0 0
0 0 0 0 0 0 0 0 0 0 0 0 0 0 0 0 0 0 0 0 0 0 0 0 0 0 0 0 0 0 0 0 0 0 0 0 0 0 0 -0 -0 -0 -0 0 0 0 0 0 0
0 0 0 0 0 0 0 0 0 0 0 0 0 0 0 0 0 0 0 0 0 0 0 0 0 0 0 0 0 0 0 0 0 0 0 0 0 0 0 0 0 0 0 0 -0 -0 -0 0 0
0 0 0 0 0 0 0 0 0 0 0 0 0 0 0 0 0 0 0 0 0 0 0 0 0 0 0 0 0 0 0 0 0 0 0 0 0 0 0 0 0 0 0 0 -0 -0 -0 0 0
0 0 0 0 0 0 0 0 0 0 0 0 0 0 0 0 0 0 0 0 0 0 0 0 0 0 0 0 0 0 0 0 0 0 0 0 0 0 0 0 0 0 0 0 0 -0 0 0 0
0 0 0 0 0 0 0 0 0 0 0 0 0 0 0 0 0 0 0 0 0 0 0 0 -0 0 0 0 0 0 0 0 0 0 0 0 0 0 0 0 0 0 0 0 0 0 0 0 0
0 0 0 0 0 0 0 0 0 0 0 0 0 0 0 0 0 0 0 0 0 0 0 0 0 0 0 0 0 0 0 0 0 0 0 0 0 0 0 0 0 0 0 0 0 0 0 0 0
0 0 0 0 0 0 0 0 0 0 0 0 0 0 0 0 0 0 0 0 0 0 0 0 0 0 0 0 0 0 0 0 0 0 0 0 0 0 0 0 0 0 0 0 0 0 0 0 0
0 0 0 0 0 0 0 0 0 0 0 0 0 0 0 0 0 0 0 0 0 0 0 0 0 0 0 0 0 0 0 0 0 0 0 0 -0 0 0 0 0 0 0 0 0 0 0 0 0
0 0 0 0 0 0 0 0 0 0 0 0 0 0 0 0 0 0 0 0 0 0 0 0 0 0 0 0 0 0 0 0 0 0 0 0 0 0 0 0 0 0 0 0 0 0 0 0 0
0 0 0 0 0 0 0 0 0 0 0 0 0 0 0 0 0 0 0 0 0 0 0 0 0 0 0 0 0 0 0 0 0 0 0 0 0 0 0 0 0 0 0 0 0 0 0 0 0
0 0 0 0 0 0 0 0 0 0 0 0 0 0 0 0 0 0 0 0 0 0 0 0 0 0 0 0 0 0 0 0 0 0 0 0 0 0 0 0 0 0 0 0 0 0 0 0 0
0 0 0 0 0 0 0 0 0 0 0 0 0 0 0 0 0 0 0 0 0 0 0 0 0 0 0 0 0 0 0 0 0 0 0 0 0 0 0 0 0 0 0 0 0 0 0 0 0
0 0 0 0 0 0 0 0 -0 0 0 0 0 0 0 0 0 0 0 0 0 0 0 0 0 0 0 0 0 0 0 0 0 0 0 0 0 0 0 0 0 0 0 0 0 0 0 0 -0
0 0 0 0 0 0 0 0 0 0 0 0 0 0 0 0 0 0 0 0 0 0 0 0 0 0 0 0 0 0 0 0 0 0 0 0 0 0 0 0 0 0 0 0 0 0 0 0 0
0 0 0 0 0 0 0 0 0 0 0 0 0 0 0 0 0 0 0 0 0 0 0 0 0 0 0 0 0 0 0 0 0 0 0 0 0 0 0 0 0 0 0 0 0 0 0 0 0
0 0 0 0 0 0 0 0 0 0 0 0 0 0 0 0 0 0 0 0 0 0 0 0 0 0 0 0 0 0 0 0 0 0 0 0 0 0 0 0 0 0 0 -0 0 0 0 0 0
0 0 0 0 0 0 0 0 0 0 0 0 0 0 0 0 0 0 0 0 0 0 0 0 0 0 0 0 0 0 0 0 0 0 0 -0 -0 -0 0 0 0 0 0 -0 -0 0 0 0 0
0 0 0 0 0 0 0 0 0 0 0 0 0 0 0 0 0 0 0 0 0 0 0 0 0 0 0 0 0 0 0 0 0 0 0 -0 -0 0 0 0 0 0 0 0 -0 0 0 0 0
0 0 0 0 0 0 0 0 0 0 0 0 0 0 0 0 0 0 0 0 0 0 0 0 0 0 0 0 0 0 0 0 0 0 0 -0 0 0 0 0 0 0 0 0 0 0 0 0 0
Wind_Speed
4 3 3 3 5 5 2 1 1 2 3 3 5 6 6 5 3 3 0 1 4 4 3 5 9 11 12 12 12 13 13 12 12 12 11 11 10 10 10 10 9 9 8 8 8 7 7 7 6
1 1 4 5 5 3 1 1 2 2 4 4 5 5 6 5 4 4 1 2 4 5 4 5 10 11 12 12 12 12 12 11 11 11 11 11 10 9 9 9 9 8 8 7 7 7 6 6 6
1 3 4 4 4 3 1 1 2 4 4 3 4 5 4 3 3 3 2 4 5 5 4 6 11 11 11 12 11 11 11 11 11 10 10 10 9 9 9 8 8 7 7 7 7 6 6 6 6
3 4 5 5 4 0 1 1 2 4 4 5 4 5 4 3 2 4 5 6 6 5 4 6 10 11 11 11 10 10 10 10 10 10 9 9 8 8 8 8 7 7 7 7 7 7 6 6 6
4 4 5 4 2 1 1 1 1 3 3 4 3 5 4 3 5 7 6 6 6 4 4 5 9 10 10 10 10 10 10 9 9 9 9 8 8 8 7 7 7 7 7 7 7 7 6 6 6
5 5 5 2 2 2 2 2 3 5 4 4 4 4 3 3 5 5 6 5 5 5 4 4 8 9 9 9 9 9 8 8 8 8 8 8 8 7 6 6 6 6 6 6 6 6 6 6 6
4 4 3 2 1 2 2 2 3 3 4 3 3 5 3 3 3 5 6 5 4 4 4 4 4 5 7 8 8 8 7 7 7 7 7 7 7 7 6 6 6 6 6 7 6 6 6 6 6
4 5 4 2 2 0 1 2 2 3 3 2 3 6 4 4 5 6 6 5 4 3 3 3 3 4 4 4 6 6 7 6 6 6 7 7 7 7 7 6 6 6 7 7 7 7 6 6 6
4 6 2 2 2 1 1 2 3 3 4 3 3 3 6 9 8 7 5 3 3 2 2 2 3 3 3 3 4 5 6 7 7 6 7 6 4 4 4 6 6 7 7 7 7 7 7 7 6
5 4 2 2 3 2 2 2 2 4 4 4 6 7 9 9 8 7 5 3 2 1 1 1 2 2 2 3 3 3 3 4 4 3 4 3 3 4 5 7 9 8 8 8 8 8 7 6 3
4 3 1 1 2 3 3 2 2 5 3 4 9 10 8 8 6 5 4 3 2 1 1 1 1 2 2 2 2 2 2 3 3 4 4 3 3 3 4 3 4 5 6 4 6 5 4 3 3
4 2 2 2 2 3 2 2 3 2 2 5 9 10 8 8 6 5 4 3 2 2 1 1 2 2 3 3 2 2 2 2 3 3 4 3 2 3 3 3 3 3 2 3 3 2 3 4 3
4 3 3 4 5 4 5 4 3 4 5 8 9 8 8 7 4 3 3 3 3 2 2 1 2 2 3 3 2 3 2 3 2 3 3 3 2 3 3 2 3 3 3 3 3 3 4 4 4
3 5 4 4 4 4 5 3 4 4 6 8 8 7 6 5 5 4 4 3 3 3 2 2 3 3 4 3 3 2 2 2 3 3 3 3 2 2 2 3 3 3 3 2 2 3 3 3 3
4 6 5 4 3 3 5 5 2 4 6 7 6 5 5 4 4 4 4 4 3 3 3 3 3 4 4 4 3 3 2 3 3 2 3 3 3 3 3 3 3 3 3 3 3 3 3 4 4
4 4 3 2 2 2 4 2 1 4 6 5 4 4 4 3 4 4 4 4 3 4 4 3 4 4 4 4 3 3 3 3 3 2 3 4 4 3 3 3 3 3 3 3 3 3 3 4 4
4 3 2 1 1 2 3 2 2 4 6 5 4 4 4 3 3 3 4 4 4 4 4 4 4 5 4 4 4 4 4 4 3 3 3 4 4 4 3 3 2 3 3 3 3 3 3 3 3
2 2 1 0 0 3 3 1 1 4 5 5 4 4 4 5 4 4 4 3 4 4 4 5 5 4 5 4 4 3 4 4 3 3 4 4 4 4 4 3 4 3 3 3 3 3 3 2 2
4 3 2 0 1 3 2 2 3 3 4 5 5 5 5 5 3 3 4 4 4 4 4 4 5 4 3 3 3 3 2 2 3 3 4 4 4 4 4 3 4 4 3 3 3 2 4 3 2
4 4 2 1 2 2 2 2 2 3 5 6 7 7 7 4 3 4 4 3 4 4 3 4 4 4 3 3 2 2 2 1 1 2 4 5 5 4 4 4 3 3 3 5 4 3 2 3 3
2 4 3 3 3 3 2 2 1 2 2 3 5 5 6 7 7 6 5 4 4 4 4 4 4 4 3 3 3 3 3 3 3 3 3 4 4 4 4 4 3 4 3 3 4 3 3 2 3
1 2 4 4 3 1 1 1 4 2 3 4 6 6 7 7 6 6 6 5 5 4 3 4 4 4 3 4 4 4 3 2 1 1 1 3 4 5 4 4 4 4 3 4 3 3 2 3 2
3 3 5 4 3 1 1 1 5 1 4 7 7 8 8 8 8 7 7 6 5 4 4 4 4 4 3 4 5 5 3 2 1 1 3 3 4 5 4 4 4 4 3 4 4 4 4 3 2
5 6 5 5 4 1 2 2 5 4 7 6 7 8 8 8 7 6 5 5 4 4 4 4 5 3 3 4 4 5 5 4 3 2 2 2 2 3 4 4 4 4 3 4 3 4 4 3 4
4 5 3 3 3 3 2 2 7 6 6 7 9 9 9 8 8 8 7 6 5 5 4 4 5 4 3 4 4 4 4 4 4 2 2 1 2 2 3 3 3 3 3 3 4 4 4 4 4
3 6 5 3 2 3 1 4 7 4 4 5 6 7 8 8 8 8 8 7 6 6 5 5 5 4 4 4 3 3 4 3 2 2 2 2 1 0 1 2 3 3 4 4 4 4 3 3 4
5 2 4 5 1 1 4 5 7 1 0 1 4 6 8 9 9 9 8 7 7 7 6 6 6 4 4 4 4 4 3 3 3 2 2 1 1 1 2 2 3 3 4 4 4 3 3 3 3
4 7 5 4 2 2 4 4 4 4 3 2 4 7 7 7 8 8 7 7 6 6 5 5 5 5 4 4 4 4 3 3 3 3 3 2 1 2 2 3 3 3 3 3 3 3 3 4 3
4 3 4 3 3 3 2 6 5 6 6 6 6 7 8 9 9 8 7 6 6 5 5 5 5 4 4 4 4 4 4 3 3 3 2 2 2 2 3 3 3 3 3 3 3 3 3 4 4
5 6 7 4 3 3 2 8 4 5 5 5 6 5 7 7 7 7 7 6 6 6 5 5 5 5 4 4 5 5 4 4 3 3 2 2 3 2 3 3 3 3 3 3 3 3 3 3 3
Wind_Direction
357 53 80 61 55 54 53 356 41 64 61 49 60 76 81 64 75 110 120 104 105 99 91 105 109 106 104 102 101 99 98 97 97 96 95 93 91 90 88 86 84 80 77 74 72 73 73 71 70
10 73 59 61 77 72 4 346 64 87 132 125 68 65 70 66 68 97 106 112 108 101 95 107 110 105 103 101 100 99 99 98 96 94 92 90 87 84 83 82 80 76 73 70 66 63 64 65 64
38 54 76 69 84 132 144 25 101 91 89 82 73 54 65 76 95 113 132 115 101 92 90 109 108 105 103 102 101 102 101 98 94 91 89 86 84 82 80 78 75 70 67 64 59 57 57 58 57
67 46 53 68 80 98 148 150 125 113 70 52 91 73 62 46 104 121 117 110 102 92 92 105 106 107 105 103 102 101 99 96 91 87 83 80 79 80 79 74 70 65 60 56 53 51 51 50 51
60 71 63 59 54 29 46 55 104 94 74 53 81 88 59 32 88 106 110 108 106 95 89 100 105 105 105 103 101 97 93 89 85 80 77 72 70 69 67 65 62 58 56 51 48 44 44 46 47
55 64 79 81 44 22 25 31 73 81 94 88 77 87 67 82 101 111 108 106 103 98 85 86 99 102 102 98 95 93 90 85 79 73 68 66 65 62 60 59 54 48 46 43 39 36 36 39 43
93 85 102 114 79 42 45 28 81 98 93 89 101 96 91 102 101 103 99 96 91 88 80 65 65 75 84 88 88 85 81 77 70 62 59 57 53 48 47 49 43 40 37 36 34 32 36 39 42
110 95 83 89 108 90 18 47 70 80 90 83 91 121 142 151 115 95 89 87 84 78 70 64 56 53 50 53 66 69 65 60 55 49 49 47 40 33 30 31 33 37 38 35 34 31 30 32 35
84 75 105 162 156 172 51 64 51 55 85 62 58 103 131 128 114 102 92 81 81 82 62 62 53 48 43 38 47 46 48 45 44 39 42 42 31 21 17 17 28 32 33 37 36 35 38 35 33
74 99 169 190 162 148 97 84 101 84 69 75 81 90 112 120 124 127 131 136 131 125 67 78 65 50 44 47 45 33 40 35 39 40 42 42 37 25 33 24 32 35 39 38 39 43 42 39 28
81 128 148 79 106 108 88 63 71 114 104 147 138 133 130 129 130 139 151 147 158 162 102 73 85 68 68 61 52 40 37 33 37 40 44 49 43 31 32 26 20 23 32 29 32 36 32 34 30
87 72 104 101 80 80 93 94 72 79 137 140 136 136 138 141 145 152 152 144 132 121 103 65 86 83 75 72 61 54 51 44 42 36 42 51 47 37 28 29 17 22 19 25 28 28 27 32 33
73 82 77 75 71 81 82 78 88 77 101 114 123 129 139 144 143 133 131 130 126 125 109 85 96 103 94 80 69 68 60 60 56 45 41 56 61 46 34 26 20 19 20 29 29 28 28 28 29
94 85 74 56 61 62 78 55 73 99 117 121 130 141 147 150 146 131 130 128 133 132 125 108 86 97 100 93 89 79 68 68 64 52 45 54 62 59 49 35 23 18 16 25 35 35 36 33 37
92 81 53 33 49 58 73 48 70 122 126 132 140 145 146 151 148 154 158 152 149 139 129 126 112 94 94 96 92 79 66 68 61 47 43 50 55 61 60 48 30 13 14 29 38 36 39 41 42
65 66 59 2 52 62 93 123 150 136 143 149 154 155 155 155 159 160 152 146 142 135 125 118 115 102 97 93 88 76 66 65 54 44 43 45 49 57 59 49 30 13 25 34 42 38 41 38 40
42 85 105 7 46 86 107 175 212 154 154 161 168 169 164 159 162 158 152 149 144 136 123 106 104 104 101 91 82 73 64 55 43 40 39 40 46 51 61 52 31 26 37 33 42 44 47 42 34
164 124 108 126 96 104 112 206 221 170 167 176 180 175 171 177 188 164 148 141 132 120 115 111 104 102 102 90 79 65 53 41 36 37 33 36 42 49 57 53 36 37 46 34 37 50 45 48 30
132 122 112 41 123 113 144 208 220 184 175 184 189 186 182 185 175 149 136 127 120 116 116 119 118 117 116 105 96 85 62 32 25 26 33 35 40 45 54 52 40 40 50 40 37 51 49 34 16
114 115 115 71 87 112 151 242 231 193 195 195 192 193 188 173 159 154 138 134 138 143 138 130 134 135 130 121 115 112 109 72 39 14 30 31 35 36 52 53 48 43 50 41 35 45 55 33 28
125 153 161 143 80 52 81 334 292 242 197 197 195 188 184 183 179 172 161 156 150 155 161 151 146 135 125 116 102 84 61 43 29 19 15 11 26 37 45 51 56 49 53 51 37 40 67 62 28
160 187 146 130 108 355 82 286 281 237 214 212 206 194 190 185 178 173 167 163 167 174 161 143 139 130 128 126 120 120 116 107 50 9 11 16 28 36 40 48 54 54 52 53 40 45 53 78 53
157 115 107 108 116 57 21 175 284 227 225 229 215 203 195 185 178 175 174 171 169 160 152 145 130 121 127 130 131 122 112 112 83 55 46 31 24 30 36 43 51 51 50 53 51 47 51 59 73
122 84 70 56 71 360 239 178 274 225 211 217 212 204 192 183 176 171 164 154 152 144 140 137 129 124 131 131 130 131 131 124 105 78 61 33 21 21 27 39 46 50 51 53 55 56 59 57 64
100 95 50 14 19 261 248 195 250 242 217 210 206 201 188 179 171 167 164 164 162 157 154 147 143 143 142 133 131 136 138 135 133 131 115 84 42 23 12 33 41 44 48 55 59 62 56 54 63
153 133 150 180 219 284 291 235 256 257 244 220 198 184 174 174 174 175 176 171 170 168 163 159 158 154 150 145 144 139 136 131 130 135 131 121 104 50 24 46 48 48 53 60 61 62 54 56 59
129 144 156 128 150 275 278 283 299 307 311 162 166 167 174 177 177 177 172 170 170 171 174 171 165 155 156 154 143 136 133 129 131 125 113 109 103 84 60 59 57 52 56 62 67 61 50 57 54
136 142 110 119 144 269 290 271 249 261 253 202 179 181 183 176 174 172 171 172 171 172 170 163 160 160 157 153 150 140 134 130 128 116 106 99 87 75 73 63 62 58 58 64 68 60 46 58 44
127 123 120 124 154 163 269 275 230 215 214 204 203 193 183 178 178 175 172 168 163 159 158 157 154 145 143 145 137 127 126 118 113 110 109 106 88 84 82 79 76 70 63 62 69 62 57 62 47
163 167 150 153 197 177 193 270 269 219 211 194 196 190 180 174 171 168 163 158 160 161 161 161 156 152 152 143 133 128 121 114 110 107 103 97 93 83 84 85 79 73 66 64 73 68 59 64 55